RADUGA-1 1 1 20083U 89048A 21016.27062788 -.00000222 00000-0 00000-0 0 9999 2 20083 14.7128 350.0107 0020864 92.0745 259.2709 0.98709518111746 SL-12 R/B(2) 1 20086U 89048D 21016.46114760 -.00000051 00000-0 00000-0 0 9991 2 20086 15.0576 350.7246 0023240 88.2506 103.5027 0.97889398112855